Location: Katzenstein
(51.7484°N, 10.2155°E)
Time: 15:31:51
(UTC+00:00)

COSMO-SKYMED 1 - Pass Details

Date: 17 February 2020
Orbit: 621 x 623 km, 97.9° (Epoch: 28 March)

Event Time Altitude Azimuth Distance (km) Brightness Sun altitude
Rises 05:37:58 0° 208° (SSW) 2,895 5.8 -8.8°
Reaches altitude 10° 05:40:47 10° 227° (SW) 1,995 4.8 -8.4°
Maximum altitude 05:43:44 18° 270° (W) 1,552 4.0 -7.9°
Drops below altitude 10° 05:46:42 10° 314° (NW) 2,006 4.7 -7.5°
Sets 05:49:34 0° 333° (NNW) 2,919 5.7 -7.0°
